Location: Helion Bumpstead
(52.0500°N, 0.4000°E)
Time: 21:41:06
(UTC+00:00)

Cosmos 1939 Rocket - Pass Details

Date: 15 November 2025
Orbit: 492 x 528 km, 97.5° (Epoch: 06 December)

Event Time Altitude Azimuth Distance (km) Brightness Sun altitude
Rises 04:54:32 0° 12° (NNE) 2,686 6.5 -21.9°
Reaches altitude 10° 04:56:40 10° 10° (N) 1,788 5.5 -21.6°
Maximum altitude 05:00:31 73° 286° (WNW) 557 2.6 -21.0°
Enters shadow 05:00:40 72° 265° (W) 561 2.6 -21.0°
